[[{"header":{"parameterUnit":"m.s-1","parameterCategory":1,"la1":30.2991,"la2":30.254,"lo1":-89.0895,"lo2":-89.0444,"dy":0.0017,"dx":0.0017,"nx":28,"ny":28,"refTime":"2025-09-16T03:00:00:Z","depth":0,"parameterNumber":2,"parameterNumberName":"U-component_of_WINDS"},"data":[0,0,0,0,0,0,0,0,0,0,0,0,0,0,0,0,0,0,0,0,0,0,0,0,0,0,0,0,0,0,0,0,0,0,0,0,0,0,0,0,0,0,0,0,0,0,0,0,0,0,0,0,0,0,0,0,0,0,-1.0042,-1.0043,0,-1.0115,-1.0116,-1.0117,-1.0114,-1.0113,-1.0112,-1.0111,-1.0188,-1.0191,-1.0194,0,0,0,0,0,0,0,0,0,0,0,0,0,-0.99,-0.9903,-1.0042,-1.0043,-1.0044,-1.0115,-1.0116,-1.0117,-1.0114,-1.0113,-1.0111,-1.011,-1.0187,-1.019,-1.0194,0,0,0,0,0,0,0,0,0,0,0,0,0,-0.9967,-0.9904,-1.0042,-1.005,-1.0052,-1.0115,-1.0116,-1.0118,-1.0114,-1.0113,-1.0111,-1.011,-1.0186,-1.019,-1.0194,-1.0254,0,0,-1.0208,-1.021,0,0,0,0,0,0,0,0,-0.9963,-0.9972,-1.0048,-1.005,-1.0052,-1.0104,-1.0095,-1.0163,-1.0115,-1.0091,-1.0111,-1.0109,-1.0161,-1.0168,-1.0185,-1.0258,-1.0261,-1.0209,-1.0212,-1.0213,-1.0215,0,0,0,0,0,0,0,-0.9958,-0.9969,-1.0071,-1.0049,-1.0052,-1.0051,-1.0059,-1.0108,-1.0134,-1.0093,-1.0092,-1.0101,-1.0162,-1.0181,-1.0187,-1.0262,-1.0209,-1.0213,-1.0215,-1.0217,-1.0389,-1.039,0,0,0,0,0,0,-0.9952,-0.9965,-1.0069,-1.0073,-1.0003,-1.0055,-1.0064,-1.0089,-1.0133,-1.0139,-1.0102,-1.0101,-1.0174,-1.0181,-1.0189,-1.0263,-1.0213,-1.0218,-1.022,-1.0387,-1.0389,-1.0391,0,0,0,0,0,0,-0.9948,-0.9961,-1.0066,-1.0019,-1.0032,-1.0059,-1.0087,-1.0091,-1.011,-1.0141,-1.0146,-1.0117,-1.0173,-1.0183,-1.0238,-1.0266,-1.022,-1.0224,-1.0385,-1.0387,-1.039,-1.041,0,0,0,0,0,0,-0.9944,-0.996,-0.9982,-1.002,-1.0035,-1.0113,-1.0089,-1.0094,-1.0117,-1.0116,-1.0155,-1.016,-1.0172,-1.0231,-1.0243,-1.0271,-1.0227,-1.0382,-1.0386,-1.0389,-1.0407,-1.0413,-1.0418,0,0,0,0,0,-0.9939,-0.9985,-0.9983,-0.9996,-1.0063,-1.0114,-1.0123,-1.0135,-1.0119,-1.0143,-1.0163,-1.0159,-1.0261,-1.0237,-1.025,-1.028,-1.0381,-1.0385,-1.0389,-1.0405,-1.0412,-1.0418,0,0,0,0,0,0,-0.9951,-0.999,-0.9989,-1.0047,-1.0077,-1.0113,-1.0143,-1.0142,-1.0178,-1.0175,-1.0189,-1.0198,-1.0253,-1.0272,-1.0245,-1.034,-1.0319,-1.0326,-1.0326,-1.0334,-1.0339,-1.0334,-1.0231,0,0,0,0,0,-0.996,-0.9997,-1.003,-1.0079,-1.0094,-1.0116,-1.0138,-1.0145,-1.0177,-1.019,-1.0214,-1.0245,-1.0284,-1.031,-1.0347,-1.0409,-1.0419,-1.0437,-1.0442,-1.0447,-1.0453,-1.0488,-1.0497,-1.0404,-1.0404,-1.0404,0,0,-0.998,-1.0006,-1.0028,-1.0082,-1.0106,-1.0145,-1.0126,-1.0168,-1.0198,-1.0196,-1.025,-1.0269,-1.0305,-1.0364,-1.0391,-1.0381,-1.048,-1.0452,-1.0455,-1.0459,-1.0493,-1.0502,-1.0509,-1.0407,-1.0407,-1.0406,0,0,-1.0036,-1.0059,-1.0102,-1.0127,-1.0163,-1.0178,-1.0188,-1.0224,-1.0237,-1.029,-1.029,-1.0326,-1.0392,-1.0419,-1.0441,-1.0507,-1.0505,-1.0519,-1.0549,-1.0583,-1.059,-1.0597,-1.0621,-1.063,-1.0525,-1.0525,-1.0525,0,-1.0056,-1.0114,-1.0125,-1.0168,-1.0191,-1.0191,-1.0236,-1.0259,-1.0306,-1.0323,-1.0311,-1.0395,-1.042,-1.0485,-1.0502,-1.0519,-1.0532,-1.0515,-1.0588,-1.0595,-1.0601,-1.0625,-1.0634,-1.0526,-1.0526,-1.0526,-1.0526,0,-1.0138,-1.0178,-1.0209,-1.0254,-1.0281,-1.0325,-1.0343,-1.037,-1.0374,-1.039,-1.0445,-1.0474,-1.0518,-1.0534,-1.0539,-1.0601,-1.0594,-1.0585,-1.0563,-1.0611,-1.0634,-1.0643,-1.0528,-1.0528,-1.0527,-1.0527,0,0,-1.0203,-1.0254,-1.0265,-1.0286,-1.0326,-1.0358,-1.0402,-1.0444,-1.0467,-1.05,-1.0538,-1.0594,-1.0586,-1.0611,-1.0619,-1.0649,-1.0701,-1.0636,-1.0637,-1.0648,-1.0772,-1.0779,-1.079,-1.0699,-1.0701,-1.0703,-1.0769,0,-1.0264,-1.0341,-1.0353,-1.0421,-1.0459,-1.046,-1.0498,-1.0527,-1.0543,-1.0579,-1.0597,-1.0637,-1.0623,-1.0638,-1.0667,-1.0688,-1.0726,-1.0683,-1.0736,-1.0738,-1.0728,-1.0801,-1.0809,-1.0871,-1.0778,-1.078,-1.0781,0,-1.0346,-1.038,-1.0452,-1.0488,-1.0504,-1.0539,-1.0579,-1.0612,-1.0646,-1.0655,-1.0683,-1.0688,-1.0734,-1.071,-1.0775,-1.0745,-1.0768,-1.0781,-1.0784,-1.079,-1.0763,-1.0811,-1.0891,-1.09,-1.0795,-1.0793,-1.0792,0,-1.0388,-1.0452,-1.0504,-1.0522,-1.0564,-1.0588,-1.0607,-1.0639,-1.0664,-1.0699,-1.0716,-1.0756,-1.0779,-1.081,-1.0826,-1.0807,-1.089,-1.0867,-1.09,-1.09,-1.0919,-1.0917,-1.1004,-1.0931,-1.0931,-1.0931,-1.0931,0,-1.0456,-1.05,-1.0524,-1.0556,-1.0606,-1.0618,-1.0668,-1.0686,-1.0714,-1.0751,-1.0753,-1.0787,-1.0805,-1.0842,-1.0854,-1.0907,-1.0916,-1.0926,-1.0929,-1.0927,-1.0926,-1.0942,-1.0939,-1.0933,-1.0933,-1.0932,-1.0932,0,-1.0512,-1.0529,-1.0586,-1.0621,-1.0631,-1.0666,-1.0697,-1.0729,-1.0744,-1.079,-1.0802,-1.0827,-1.087,-1.0888,-1.0942,-1.095,-1.1011,-1.101,-1.1,-1.1001,-1.1034,-1.1031,-1.1135,-1.115,-1.1066,-1.1067,-1.1067,0,-1.0555,-1.0589,-1.0628,-1.0652,-1.0671,-1.071,-1.0735,-1.0749,-1.0776,-1.0817,-1.0844,-1.0887,-1.0923,-1.0993,-1.1016,-1.1058,-1.1059,-1.1092,-1.1065,-1.1061,-1.106,-1.1059,-1.1063,-1.1098,-1.1098,-1.1099,-1.11,0,-1.0629,-1.0636,-1.0672,-1.0711,-1.0741,-1.0773,-1.0805,-1.0824,-1.0843,-1.0873,-1.0917,-1.0945,-1.1,-1.1043,-1.1086,-1.1106,-1.1107,-1.1108,-1.1118,-1.1116,-1.1109,-1.1115,-1.1015,-1.1106,-1.1105,-1.1105,-1.1104,-1.1104,-1.068,-1.0711,-1.0743,-1.0784,-1.0808,-1.0838,-1.0869,-1.0889,-1.0926,-1.0971,-1.0977,-1.1025,-1.1058,-1.1115,-1.1137,-1.1176,-1.1167,-1.1182,-1.1185,-1.1189,-1.1192,-1.1102,-1.1183,-1.1183,-1.1183,-1.1183,-1.1183,0,-1.0756,-1.0776,-1.0813,-1.0857,-1.0889,-1.0885,-1.092,-1.0947,-1.0989,-1.1019,-1.1054,-1.1106,-1.1148,-1.1175,-1.1218,-1.1243,-1.1245,-1.1254,-1.1253,-1.1258,-1.1196,-1.1184,-1.1252,-1.1252,-1.1252,-1.1252,-1.1252,-1.1252,-1.0799,-1.0851,-1.0862,-1.0926,-1.0947,-1.0993,-1.1013,-1.104,-1.1065,-1.1122,-1.1157,-1.1174,-1.1203,-1.1248,-1.1287,-1.1294,-1.131,-1.1321,-1.1327,-1.1269,-1.1262,-1.1255,-1.1244,-1.1324,-1.1324,-1.1386,-1.1387,-1.1387]},{"header":{"parameterUnit":"m.s-1","parameterCategory":1,"la1":30.2991,"la2":30.254,"lo1":-89.0895,"lo2":-89.0444,"dy":0.0017,"dx":0.0017,"nx":28,"ny":28,"refTime":"2025-09-16T03:00:00:Z","depth":0,"parameterNumber":3,"parameterNumberName":"V-component_of_WINDS"},"data":[0,0,0,0,0,0,0,0,0,0,0,0,0,0,0,0,0,0,0,0,0,0,0,0,0,0,0,0,0,0,0,0,0,0,0,0,0,0,0,0,0,0,0,0,0,0,0,0,0,0,0,0,0,0,0,0,0,0,3.0457,3.0457,0,3.0456,3.0455,3.0455,3.0425,3.0424,3.0423,3.0423,3.0421,3.0422,3.0422,0,0,0,0,0,0,0,0,0,0,0,0,0,3.0434,3.0434,3.0457,3.0457,3.0457,3.0456,3.0455,3.0455,3.0425,3.0424,3.0423,3.0422,3.0421,3.0421,3.0422,0,0,0,0,0,0,0,0,0,0,0,0,0,3.0439,3.0435,3.0457,3.0442,3.044,3.0456,3.0455,3.0455,3.0425,3.0424,3.0423,3.0422,3.042,3.0421,3.0422,3.0452,0,0,3.0426,3.0426,0,0,0,0,0,0,0,0,3.0439,3.044,3.0444,3.0443,3.0441,3.0439,3.0447,3.0454,3.0426,3.0431,3.0423,3.0421,3.0428,3.0428,3.0431,3.0452,3.0452,3.0426,3.0426,3.0427,3.0427,0,0,0,0,0,0,0,3.0439,3.044,3.0456,3.0444,3.0442,3.0435,3.0434,3.0448,3.0436,3.043,3.0428,3.0428,3.0427,3.043,3.043,3.0452,3.0426,3.0427,3.0427,3.0428,3.0497,3.0498,0,0,0,0,0,0,3.044,3.044,3.0457,3.0456,3.0437,3.0436,3.0436,3.0441,3.0436,3.0434,3.0429,3.0427,3.0428,3.0429,3.043,3.0463,3.0427,3.0428,3.0428,3.0495,3.0497,3.0498,0,0,0,0,0,0,3.044,3.0442,3.0457,3.0448,3.0449,3.0438,3.0444,3.0442,3.0444,3.0435,3.0433,3.0434,3.0428,3.0429,3.0447,3.0462,3.0428,3.0429,3.0494,3.0496,3.0497,3.053,0,0,0,0,0,0,3.0439,3.0442,3.0453,3.0448,3.0449,3.0473,3.0445,3.0442,3.0446,3.0443,3.0439,3.0437,3.0427,3.0445,3.0448,3.0463,3.043,3.0492,3.0495,3.0497,3.0527,3.0533,3.0537,0,0,0,0,0,3.0439,3.0463,3.0454,3.0456,3.0463,3.0474,3.0475,3.0462,3.0448,3.0458,3.0453,3.0437,3.0461,3.0447,3.045,3.0466,3.0491,3.0494,3.0497,3.0525,3.0532,3.0537,0,0,0,0,0,0,3.0471,3.0462,3.0452,3.0475,3.0476,3.0469,3.0482,3.047,3.0474,3.0471,3.0456,3.0455,3.0475,3.0473,3.0458,3.0494,3.0473,3.0477,3.0494,3.05,3.0505,3.0504,3.0431,0,0,0,0,0,3.048,3.049,3.0482,3.0503,3.0504,3.0493,3.0498,3.0488,3.0488,3.0488,3.0483,3.0483,3.0491,3.0496,3.0502,3.0528,3.0526,3.054,3.0545,3.0549,3.0552,3.0563,3.0569,3.0507,3.0507,3.0507,0,0,3.05,3.0497,3.0504,3.051,3.0509,3.0519,3.0494,3.0506,3.0512,3.049,3.0505,3.0502,3.0502,3.0523,3.0532,3.0522,3.0569,3.0553,3.0556,3.0556,3.0567,3.0573,3.0578,3.0509,3.0509,3.0508,0,0,3.0541,3.0541,3.0557,3.0557,3.0556,3.0549,3.0553,3.0548,3.0545,3.0561,3.0544,3.0552,3.0566,3.0565,3.0567,3.0608,3.0594,3.0611,3.0636,3.0647,3.0652,3.0656,3.0669,3.0674,3.0614,3.0614,3.0614,0,3.0566,3.058,3.0568,3.058,3.0582,3.0563,3.0579,3.058,3.0581,3.0583,3.0571,3.0587,3.0585,3.0605,3.0615,3.0618,3.0622,3.061,3.0653,3.0657,3.066,3.0672,3.0677,3.0616,3.0616,3.0615,3.0615,0,3.061,3.062,3.0634,3.0635,3.0639,3.0654,3.0643,3.0649,3.0639,3.0633,3.0649,3.0647,3.0652,3.0657,3.0647,3.0675,3.0669,3.0655,3.0634,3.0668,3.0679,3.0684,3.0619,3.0618,3.0617,3.0617,0,0,3.0669,3.0663,3.0668,3.0668,3.0666,3.0673,3.0687,3.0691,3.0696,3.0698,3.0708,3.072,3.0708,3.071,3.0701,3.0711,3.0742,3.0696,3.0696,3.0703,3.077,3.0779,3.0784,3.0733,3.0734,3.0735,3.077,0,3.0707,3.0729,3.0718,3.0741,3.075,3.0732,3.0743,3.0743,3.0738,3.0745,3.0739,3.0747,3.0731,3.0732,3.0742,3.0736,3.0755,3.0734,3.0741,3.0742,3.0739,3.079,3.0799,3.0832,3.0774,3.0775,3.0775,0,3.0753,3.0757,3.0781,3.0776,3.0779,3.079,3.0792,3.0799,3.0799,3.0794,3.0797,3.0785,3.0798,3.0778,3.0795,3.0781,3.0784,3.0782,3.0783,3.0781,3.0759,3.0788,3.0842,3.0846,3.0782,3.0782,3.0781,0,3.0791,3.0802,3.0817,3.0818,3.0814,3.0821,3.082,3.0818,3.0821,3.0824,3.0826,3.0831,3.0832,3.0836,3.0826,3.0813,3.0844,3.0824,3.0839,3.0839,3.0844,3.0844,3.0898,3.085,3.085,3.085,3.085,0,3.0833,3.0848,3.0834,3.0843,3.0859,3.0847,3.0863,3.086,3.0858,3.0866,3.0852,3.086,3.0847,3.0853,3.0846,3.086,3.0862,3.0858,3.0855,3.0857,3.0858,3.0857,3.0854,3.0851,3.0851,3.0851,3.0851,0,3.0877,3.0869,3.0884,3.0878,3.0877,3.0889,3.0884,3.0892,3.0887,3.0897,3.0899,3.089,3.0897,3.0888,3.0894,3.0889,3.0907,3.0903,3.0907,3.0905,3.092,3.0918,3.0974,3.098,3.0931,3.0931,3.0931,0,3.0903,3.0914,3.0909,3.0914,3.0913,3.092,3.0923,3.0912,3.0915,3.0915,3.0923,3.0929,3.0933,3.0945,3.0939,3.0943,3.0937,3.0956,3.0937,3.0939,3.0935,3.0933,3.0933,3.0959,3.096,3.096,3.0961,0,3.0949,3.0944,3.0949,3.0953,3.0957,3.0959,3.096,3.0964,3.0953,3.0958,3.0964,3.0967,3.0973,3.0979,3.0982,3.098,3.0968,3.0967,3.0971,3.0972,3.0973,3.0971,3.0915,3.0965,3.0965,3.0965,3.0964,3.0964,3.0983,3.0992,3.0989,3.0995,3.0995,3.0996,3.1003,3.0998,3.1004,3.1007,3.1001,3.1009,3.1008,3.1011,3.101,3.1016,3.1008,3.1013,3.1014,3.1015,3.1016,3.0975,3.1017,3.1017,3.1017,3.1017,3.1017,0,3.1027,3.1025,3.103,3.1032,3.1036,3.1026,3.1026,3.103,3.1038,3.1038,3.1042,3.1049,3.1054,3.1049,3.1053,3.1059,3.1053,3.106,3.1058,3.1058,3.1025,3.102,3.1064,3.1064,3.1064,3.1064,3.1064,3.1064,3.105,3.1063,3.1058,3.107,3.1068,3.1075,3.1076,3.1077,3.1077,3.1086,3.109,3.1087,3.1084,3.1088,3.1092,3.1091,3.1092,3.11,3.1096,3.1065,3.106,3.1056,3.1051,3.1101,3.1101,3.1128,3.1129,3.1129]}]]